[[{"header":{"parameterUnit":"m.s-1","parameterCategory":1,"la1":30.2991,"la2":30.254,"lo1":-89.0895,"lo2":-89.0444,"dy":0.0017,"dx":0.0017,"nx":28,"ny":28,"refTime":"2026-03-04T03:00:00:Z","depth":0,"parameterNumber":2,"parameterNumberName":"U-component_of_WINDS"},"data":[0,0,0,0,0,0,0,0,0,0,0,0,0,0,0,0,0,0,0,0,0,0,0,0,0,0,0,0,0,0,0,0,0,0,0,0,0,0,0,0,0,0,0,0,0,0,0,0,0,0,0,0,0,0,0,0,0,0,-5.587,-5.5871,0,-5.5986,-5.5987,-5.5989,-5.5935,-5.5932,-5.5929,-5.5926,-5.6043,-5.6049,-5.6055,0,0,0,0,0,0,0,0,0,0,0,0,0,-5.5601,-5.5606,-5.5869,-5.5871,-5.5872,-5.5986,-5.5987,-5.5989,-5.5936,-5.5932,-5.5928,-5.5925,-5.6041,-5.6048,-5.6055,0,0,0,0,0,0,0,0,0,0,0,0,0,-5.5717,-5.5608,-5.5869,-5.586,-5.586,-5.5985,-5.5987,-5.5989,-5.5936,-5.5932,-5.5928,-5.5923,-5.6039,-5.6048,-5.6056,-5.6197,0,0,-5.6083,-5.6087,0,0,0,0,0,0,0,0,-5.5711,-5.5727,-5.5859,-5.586,-5.5861,-5.5942,-5.5935,-5.6059,-5.5937,-5.5907,-5.5926,-5.5921,-5.6013,-5.6023,-5.6055,-5.6203,-5.6208,-5.6084,-5.6089,-5.6093,-5.6095,0,0,0,0,0,0,0,-5.5703,-5.5722,-5.5915,-5.5861,-5.5862,-5.5849,-5.5861,-5.5959,-5.5983,-5.5909,-5.5906,-5.5921,-5.6012,-5.6046,-5.6057,-5.621,-5.6083,-5.6091,-5.6097,-5.61,-5.6481,-5.6485,0,0,0,0,0,0,-5.5695,-5.5716,-5.5912,-5.5919,-5.5774,-5.5858,-5.5871,-5.592,-5.5982,-5.5987,-5.5924,-5.5918,-5.6034,-5.6047,-5.6061,-5.623,-5.6093,-5.6101,-5.6106,-5.6476,-5.6482,-5.6487,0,0,0,0,0,0,-5.569,-5.5713,-5.5907,-5.5817,-5.584,-5.5867,-5.5923,-5.5925,-5.5958,-5.5993,-5.5997,-5.5954,-5.6031,-5.6049,-5.6164,-5.6233,-5.6105,-5.6113,-5.647,-5.6478,-5.6485,-5.6569,0,0,0,0,0,0,-5.5682,-5.5712,-5.5765,-5.5818,-5.5845,-5.6008,-5.5927,-5.593,-5.5974,-5.5967,-5.6022,-5.6027,-5.6029,-5.6152,-5.6173,-5.6243,-5.612,-5.6464,-5.6474,-5.6482,-5.656,-5.6579,-5.6594,0,0,0,0,0,-5.5673,-5.5784,-5.5768,-5.5792,-5.5913,-5.6013,-5.6028,-5.6028,-5.598,-5.6034,-5.6057,-5.6026,-5.6223,-5.6164,-5.6188,-5.6261,-5.646,-5.6471,-5.6482,-5.6553,-5.6575,-5.6594,0,0,0,0,0,0,-5.5736,-5.579,-5.5773,-5.5905,-5.5955,-5.6003,-5.6071,-5.6051,-5.6115,-5.6105,-5.6102,-5.6115,-5.6235,-5.626,-5.6193,-5.6402,-5.6334,-5.635,-5.638,-5.6402,-5.6418,-5.6408,-5.6127,0,0,0,0,0,-5.5766,-5.5843,-5.5886,-5.5998,-5.6024,-5.6044,-5.6087,-5.6083,-5.6134,-5.6155,-5.6185,-5.6236,-5.6309,-5.6357,-5.6427,-5.6566,-5.6576,-5.6628,-5.6645,-5.6659,-5.6672,-5.6747,-5.677,-5.6523,-5.6523,-5.6523,0,0,-5.5827,-5.5866,-5.5914,-5.6012,-5.6049,-5.6129,-5.6061,-5.6148,-5.6207,-5.6167,-5.6278,-5.6304,-5.636,-5.6487,-5.6545,-5.6512,-5.6743,-5.6673,-5.6684,-5.6689,-5.6761,-5.6784,-5.6805,-5.6531,-5.6529,-5.6528,0,0,-5.5978,-5.6017,-5.6114,-5.6154,-5.6214,-5.6227,-5.6251,-5.6304,-5.6319,-5.6431,-5.6403,-5.6474,-5.66,-5.6642,-5.6679,-5.6851,-5.6825,-5.6874,-5.6961,-5.7035,-5.7054,-5.7071,-5.7131,-5.7153,-5.6888,-5.6888,-5.6888,0,-5.6046,-5.6165,-5.6166,-5.6255,-5.6299,-5.627,-5.6368,-5.6408,-5.6487,-5.6517,-5.648,-5.664,-5.6675,-5.6812,-5.6855,-5.6887,-5.6913,-5.6866,-5.7051,-5.7069,-5.7085,-5.7142,-5.7164,-5.6894,-5.6893,-5.6892,-5.6892,0,-5.6245,-5.6328,-5.64,-5.6478,-5.653,-5.6624,-5.6639,-5.6692,-5.6686,-5.6703,-5.6818,-5.6861,-5.6939,-5.6972,-5.6965,-5.7109,-5.7087,-5.7051,-5.6982,-5.7114,-5.7167,-5.7189,-5.6901,-5.6899,-5.6898,-5.6896,0,0,-5.6434,-5.6515,-5.6541,-5.6577,-5.6643,-5.6707,-5.68,-5.6878,-5.6923,-5.698,-5.7057,-5.7167,-5.7135,-5.7178,-5.7177,-5.7242,-5.7375,-5.7198,-5.7199,-5.7228,-5.7535,-5.7559,-5.7584,-5.736,-5.7364,-5.7367,-5.7529,0,-5.6589,-5.6752,-5.6758,-5.6907,-5.6983,-5.696,-5.7041,-5.709,-5.711,-5.7178,-5.7201,-5.7278,-5.7231,-5.7256,-5.732,-5.7345,-5.7436,-5.7334,-5.743,-5.7433,-5.7413,-5.7612,-5.7638,-5.7788,-5.755,-5.7554,-5.7556,0,-5.6789,-5.6854,-5.7011,-5.7067,-5.71,-5.7172,-5.7245,-5.7311,-5.7367,-5.7377,-5.7428,-5.7418,-5.7513,-5.7445,-5.7577,-5.7507,-5.7548,-5.7567,-5.7573,-5.7578,-5.75,-5.7621,-5.7836,-5.7858,-5.759,-5.7587,-5.7585,0,-5.6909,-5.7036,-5.7146,-5.7178,-5.7247,-5.7299,-5.733,-5.7382,-5.7429,-5.7493,-5.7524,-5.7598,-5.7638,-5.7696,-5.7707,-5.7656,-5.7839,-5.7771,-5.7848,-5.7848,-5.7884,-5.7881,-5.8106,-5.7916,-5.7916,-5.7916,-5.7915,0,-5.7079,-5.7175,-5.7201,-5.7269,-5.7377,-5.7384,-5.749,-5.7518,-5.7565,-5.7638,-5.7623,-5.7691,-5.7702,-5.7774,-5.7783,-5.789,-5.7909,-5.7919,-5.792,-5.7919,-5.7917,-5.7942,-5.7931,-5.7922,-5.792,-5.7919,-5.7918,0,-5.7229,-5.725,-5.7369,-5.7426,-5.7443,-5.752,-5.7568,-5.7633,-5.7654,-5.7746,-5.7768,-5.7799,-5.7883,-5.7901,-5.7999,-5.8006,-5.8132,-5.8124,-5.8113,-5.8111,-5.8187,-5.8179,-5.8433,-5.8466,-5.8258,-5.826,-5.8261,0,-5.7333,-5.7407,-5.7473,-5.7522,-5.7556,-5.7633,-5.7682,-5.7693,-5.7744,-5.7816,-5.7873,-5.7955,-5.802,-5.8155,-5.8186,-5.8262,-5.8254,-5.8339,-5.8265,-5.8262,-5.8253,-5.8247,-5.8254,-5.8351,-5.8353,-5.8355,-5.8357,0,-5.7517,-5.7525,-5.7596,-5.7672,-5.7731,-5.7791,-5.7848,-5.7888,-5.7908,-5.7966,-5.8052,-5.8104,-5.8206,-5.8287,-5.8364,-5.8396,-5.838,-5.8381,-5.8402,-5.8399,-5.8389,-5.8393,-5.8148,-5.8373,-5.8372,-5.837,-5.8369,-5.8369,-5.7646,-5.771,-5.7768,-5.7848,-5.7893,-5.7948,-5.8012,-5.8041,-5.8113,-5.8198,-5.8201,-5.8294,-5.8351,-5.8453,-5.849,-5.8563,-5.8537,-5.8568,-5.8576,-5.8582,-5.8588,-5.8381,-5.8578,-5.8577,-5.8577,-5.8576,-5.8576,0,-5.7826,-5.7863,-5.7937,-5.8018,-5.8082,-5.8064,-5.8128,-5.8181,-5.8264,-5.8319,-5.8385,-5.8485,-5.8565,-5.8605,-5.8684,-5.8735,-5.8729,-5.8755,-5.8749,-5.8757,-5.8608,-5.8581,-5.8758,-5.8758,-5.8758,-5.8758,-5.8758,-5.8758,-5.7927,-5.8036,-5.8051,-5.8183,-5.8219,-5.8311,-5.8349,-5.8399,-5.8443,-5.8555,-5.8622,-5.8648,-5.8697,-5.8781,-5.8854,-5.8863,-5.8892,-5.8921,-5.8927,-5.8786,-5.8767,-5.875,-5.8723,-5.8928,-5.8928,-5.9069,-5.907,-5.9071]},{"header":{"parameterUnit":"m.s-1","parameterCategory":1,"la1":30.2991,"la2":30.254,"lo1":-89.0895,"lo2":-89.0444,"dy":0.0017,"dx":0.0017,"nx":28,"ny":28,"refTime":"2026-03-04T03:00:00:Z","depth":0,"parameterNumber":3,"parameterNumberName":"V-component_of_WINDS"},"data":[0,0,0,0,0,0,0,0,0,0,0,0,0,0,0,0,0,0,0,0,0,0,0,0,0,0,0,0,0,0,0,0,0,0,0,0,0,0,0,0,0,0,0,0,0,0,0,0,0,0,0,0,0,0,0,0,0,0,2.0245,2.0245,0,2.029,2.029,2.0291,2.0312,2.0312,2.0311,2.0311,2.0355,2.0356,2.0357,0,0,0,0,0,0,0,0,0,0,0,0,0,2.0176,2.0177,2.0245,2.0245,2.0246,2.029,2.029,2.0291,2.0312,2.0312,2.0311,2.0311,2.0354,2.0356,2.0357,0,0,0,0,0,0,0,0,0,0,0,0,0,2.0212,2.0177,2.0245,2.0261,2.0263,2.029,2.029,2.0291,2.0312,2.0312,2.0311,2.0311,2.0354,2.0356,2.0357,2.037,0,0,2.0363,2.0364,0,0,0,0,0,0,0,0,2.021,2.0214,2.0258,2.026,2.0263,2.0295,2.0282,2.0317,2.0312,2.0293,2.0311,2.0311,2.0335,2.0338,2.0347,2.0372,2.0373,2.0363,2.0364,2.0365,2.0365,0,0,0,0,0,0,0,2.0207,2.0212,2.0263,2.0259,2.0262,2.0267,2.0272,2.0289,2.0314,2.0295,2.0296,2.0302,2.0336,2.0345,2.0348,2.0374,2.0363,2.0365,2.0366,2.0366,2.0414,2.0415,0,0,0,0,0,0,2.0202,2.021,2.0261,2.0264,2.0236,2.0268,2.0274,2.0285,2.0314,2.0318,2.0302,2.0302,2.0342,2.0346,2.0349,2.0368,2.0365,2.0367,2.0368,2.0414,2.0414,2.0415,0,0,0,0,0,0,2.0201,2.0206,2.0259,2.0238,2.0245,2.0269,2.0281,2.0286,2.0295,2.0319,2.0323,2.0306,2.0342,2.0347,2.0365,2.0369,2.0367,2.0369,2.0414,2.0414,2.0414,2.0402,0,0,0,0,0,0,2.0198,2.0206,2.021,2.0238,2.0246,2.0274,2.0282,2.0287,2.0298,2.0299,2.0324,2.0328,2.0342,2.0363,2.0367,2.0372,2.037,2.0414,2.0414,2.0414,2.0403,2.0402,2.0402,0,0,0,0,0,2.0196,2.0204,2.0211,2.0217,2.0252,2.0275,2.0279,2.0296,2.0298,2.0303,2.0319,2.0328,2.0368,2.0364,2.037,2.0375,2.0413,2.0414,2.0414,2.0403,2.0402,2.0402,0,0,0,0,0,0,2.0175,2.0208,2.0215,2.0232,2.0251,2.0278,2.0285,2.0295,2.0312,2.0312,2.0332,2.0337,2.0354,2.0366,2.0361,2.0389,2.0392,2.0393,2.0381,2.0381,2.0381,2.0377,2.0372,0,0,0,0,0,2.0172,2.0188,2.0216,2.0228,2.0237,2.026,2.027,2.0282,2.0301,2.0308,2.0326,2.0344,2.0361,2.0371,2.0388,2.0405,2.0411,2.0411,2.0411,2.041,2.0411,2.0424,2.0424,2.0416,2.0416,2.0416,0,0,2.0167,2.0187,2.0195,2.0225,2.024,2.0257,2.0266,2.0282,2.0294,2.031,2.033,2.0343,2.0365,2.0383,2.0392,2.0393,2.0416,2.0411,2.041,2.0412,2.0424,2.0425,2.0425,2.0416,2.0416,2.0416,0,0,2.0166,2.0182,2.0195,2.0212,2.0236,2.0251,2.0255,2.0281,2.0292,2.0311,2.0325,2.034,2.0368,2.0384,2.0395,2.0404,2.0413,2.0409,2.0407,2.0419,2.0419,2.042,2.0425,2.0426,2.041,2.041,2.041,0,2.0155,2.0181,2.0201,2.0217,2.0231,2.0248,2.0263,2.0277,2.0305,2.0314,2.0316,2.0354,2.0369,2.0393,2.0395,2.0403,2.0409,2.0406,2.0418,2.0419,2.042,2.0424,2.0426,2.0409,2.0409,2.0409,2.0409,0,2.0169,2.0186,2.0194,2.0223,2.0237,2.0252,2.0275,2.0287,2.0298,2.0313,2.0335,2.0354,2.0377,2.0383,2.0393,2.0409,2.0409,2.0414,2.0417,2.042,2.0424,2.0426,2.0408,2.0409,2.0409,2.0409,0,0,2.0153,2.0196,2.0198,2.0213,2.0243,2.0257,2.0273,2.0297,2.0308,2.0327,2.0342,2.0368,2.0373,2.0387,2.0399,2.0409,2.0417,2.0413,2.0414,2.0414,2.0438,2.0434,2.0436,2.0423,2.0424,2.0424,2.0436,0,2.0157,2.0189,2.0208,2.0232,2.025,2.0269,2.0284,2.0304,2.0319,2.0336,2.0353,2.0371,2.0377,2.0385,2.0396,2.0414,2.0422,2.0413,2.0438,2.0439,2.0433,2.0438,2.0434,2.0445,2.0438,2.0438,2.0439,0,2.0165,2.0187,2.0213,2.0244,2.0252,2.0265,2.029,2.0306,2.033,2.034,2.0357,2.037,2.0389,2.0391,2.0418,2.0412,2.0423,2.0434,2.0435,2.0438,2.0439,2.0442,2.0448,2.045,2.0441,2.0441,2.0441,0,2.0153,2.0188,2.021,2.0221,2.0257,2.0267,2.0282,2.0306,2.032,2.0341,2.0351,2.0373,2.0386,2.0404,2.0423,2.0422,2.0449,2.0452,2.0459,2.0459,2.0464,2.0463,2.0472,2.047,2.047,2.047,2.047,0,2.0155,2.0171,2.0205,2.0218,2.0237,2.026,2.0278,2.0294,2.0316,2.0333,2.035,2.0365,2.039,2.0408,2.0424,2.0445,2.045,2.046,2.0464,2.0459,2.0458,2.0467,2.0467,2.047,2.047,2.047,2.047,0,2.0145,2.0168,2.0193,2.0226,2.0235,2.0248,2.0276,2.029,2.0307,2.0329,2.0335,2.0362,2.0385,2.0407,2.0436,2.0447,2.0469,2.0473,2.0462,2.0464,2.0471,2.047,2.0486,2.049,2.0484,2.0484,2.0484,0,2.0145,2.0158,2.0194,2.0207,2.0223,2.0244,2.0259,2.0283,2.0298,2.0328,2.0338,2.0363,2.0384,2.0421,2.0443,2.0466,2.0472,2.0477,2.0476,2.0471,2.0474,2.0473,2.0476,2.0476,2.0476,2.0476,2.0476,0,2.0143,2.0155,2.0177,2.0204,2.0223,2.0244,2.0266,2.0276,2.0304,2.0321,2.0346,2.0362,2.0395,2.042,2.0447,2.0463,2.0474,2.0476,2.048,2.0475,2.0468,2.0473,2.0462,2.0476,2.0476,2.0476,2.0476,2.0476,2.0139,2.0153,2.0181,2.0206,2.0226,2.0247,2.0262,2.0283,2.0305,2.0334,2.0347,2.0373,2.0399,2.0437,2.0452,2.0473,2.0475,2.0479,2.0481,2.0482,2.0482,2.0464,2.0478,2.0478,2.0478,2.0478,2.0478,0,2.014,2.016,2.0182,2.0214,2.0234,2.0246,2.0272,2.0287,2.031,2.0334,2.0356,2.0386,2.0411,2.0436,2.0463,2.0475,2.0481,2.0481,2.0481,2.0485,2.0477,2.0472,2.0476,2.0476,2.0476,2.0476,2.0476,2.0476,2.0142,2.0167,2.0182,2.0218,2.0237,2.0264,2.0278,2.0299,2.0318,2.0352,2.0373,2.0391,2.0416,2.0445,2.0469,2.0476,2.0485,2.0484,2.0492,2.0485,2.0485,2.0485,2.048,2.0485,2.0485,2.0498,2.0498,2.0498]}]]